Location: *
(45.1961°N, 1.9694°E)
Time: 13:07:55
(UTC+00:00)

Cosmos 1666 - Pass Details

Date: 25 August 2019
Orbit: 497 x 523 km, 82.5° (Epoch: 17 September)

Event Time Altitude Azimuth Distance (km) Brightness Sun altitude
Exits shadow 21:15:37 40° 245° (WSW) 777 3.6 -23.7°
Maximum altitude 21:16:25 47° 282° (WNW) 695 3.6 -23.8°
Drops below altitude 10° 21:20:07 10° 357° (N) 1,746 6.0 -24.3°
Sets 21:22:19 0° 4° (N) 2,633 6.9 -24.5°
